ORBCOMM-X [-]

Last updated on July 6, 2021, 3:36 p.m. UTC

1 21576U 91050C   21186.94095619  .00000028  00000-0  22311-4 0  9990
2 21576  98.5284 248.9839 0003401 189.8129 170.2994 14.41658967574232
UTC
Height (km)
Latitude
Longitude
Inclination
Orbital Period
UTC large
Height (km)
Speed (km/s)
/
Latitude / Longitude
Inclination (degrees)
Orbital Period (minutes)
Azimuth
Elevation
Range (km)
Doppler Factor
iOS Compass Heading
iOS Angle